Location: Caltech
(34.1382°N, 118.1253°W)
Time: 12:44:40
(UTC-08:00)

Iridium 68 - Visible Passes

Search period start: 25 February 2017 00:00
Search period end: 07 March 2017 00:00
Orbit: 776 x 779 km, 86.4° (Epoch: 25 February)

Date Brightness Start Highest point End Pass type
(mag) Time Alt. Az. Time Alt. Az. Time Alt. Az.
25 Feb 5.9 19:14:22 10° N 19:19:36 90° ENE 19:24:49 10° S visible
26 Feb 6.3 18:41:02 10° NNE 18:46:03 46° E 18:51:02 10° SSE visible
26 Feb 8.8 20:23:10 10° NW 20:26:18 16° W 20:29:25 10° WSW visible
27 Feb 7.0 18:08:12 10° NNE 18:12:23 24° E 18:16:32 10° SE visible
27 Feb 7.8 19:48:30 10° NNW 19:53:02 31° W 19:57:34 10° SW visible
28 Feb 6.6 19:14:31 10° N 19:19:40 61° W 19:24:47 10° SSW visible
01 Mar 6.0 18:40:58 10° N 18:46:11 70° E 18:51:22 10° S visible
01 Mar 9.3 20:25:19 10° WNW 20:26:11 10° WNW 20:27:01 10° W visible
02 Mar 8.5 19:49:10 10° NW 19:52:59 21° W 19:56:48 10° SW visible
03 Mar 7.4 19:14:50 10° NNW 19:19:41 40° W 19:24:31 10° SSW visible
04 Mar 6.2 18:41:03 10° N 18:46:16 79° W 18:51:29 10° S visible
05 Mar 6.2 18:07:38 10° N 18:12:45 53° E 18:17:49 10° SSE visible
05 Mar 9.2 19:50:17 10° NW 19:52:54 14° W 19:55:31 10° WSW visible
06 Mar 9.6 05:23:54 10° E 05:25:22 11° ENE 05:26:51 10° ENE visible
06 Mar 8.3 19:15:20 10° NNW 19:19:40 27° W 19:24:00 10° SW visible
